[Iaude] MPEC V11: 2016 UE101 [a=1.67,e=0.35,i=11.4,H=20.7]

mpec at si.edu mpec at si.edu
Wed Nov 2 14:54:04 EDT 2016


M.P.E.C. 2016-V11                                Issued 2016 Nov. 2, 18:48 UT
 
     The Minor Planet Electronic Circulars contain information on unusual
         minor planets and routine data on comets.  They are published
    on behalf of Division F of the International Astronomical Union by the
          Minor Planet Center, Smithsonian Astrophysical Observatory,
                          Cambridge, MA 02138, U.S.A.

             Prepared using the Tamkin Foundation Computer Network

                              MPC at CFA.HARVARD.EDU
            URL http://www.minorplanetcenter.net/    ISSN 1523-6714


                                  2016 UE101
 
Observations:
     K16UA1E* C2016 10 29.44504 05 32 46.13 +05 29 26.8          21.1 VqEV011G96
     K16UA1E  C2016 10 29.44933 05 32 46.45 +05 29 27.9          21.1 VqEV011G96
     K16UA1E  C2016 10 29.45361 05 32 46.84 +05 29 28.7          21.3 VqEV011G96
     K16UA1E  C2016 10 29.47655 05 32 48.71 +05 29 33.8          21.0 VqEV011G96
     K16UA1E  C2016 10 29.48326 05 32 49.23 +05 29 36.0          21.4 VqEV011G96
     K16UA1E  C2016 10 29.48976 05 32 49.75 +05 29 36.9          21.1 VqEV011G96
     K16UA1E  C2016 10 29.49641 05 32 50.27 +05 29 39.0          20.9 VqEV011G96
     K16UA1E  C2016 10 30.35263 05 34 05.40 +05 33 08.6          20.6 VqEV011G96
     K16UA1E  C2016 10 30.35761 05 34 05.77 +05 33 10.8          20.8 VqEV011G96
     K16UA1E  C2016 10 30.36901 05 34 06.70 +05 33 13.1          21.4 VqEV011G96
     K16UA1E KC2016 10 31.40671505 35 35.27 +05 37 48.4          20.9 VuEV011H21
     K16UA1E KC2016 10 31.41367105 35 35.84 +05 37 50.5          21.0 VuEV011H21
     K16UA1E "C2016 10 31.47381705 35 40.88 +05 38 08.8          20.9 RtEV011705
     K16UA1E "C2016 10 31.47483405 35 40.94 +05 38 09.1          20.7 RtEV011705
     K16UA1E "C2016 10 31.47585105 35 41.02 +05 38 09.5          20.6 RtEV011705
     K16UA1E  C2016 11 02.31876 05 38 18.51 +05 47 29.8          20.9 RoEV011926
     K16UA1E  C2016 11 02.33299 05 38 19.61 +05 47 34.7          21.0 RoEV011926
     K16UA1E  C2016 11 02.34727 05 38 20.70 +05 47 39.0          20.9 RoEV011926
 
Observer details:
705 Apache Point.  Observers K. Nault, M. Hammergren, M. Brucker.  Measurer
    K. Nault.  3.5-m f/10 reflector + CCD.
926 Tenagra II Observatory.  Observers M. Schwartz, P. R. Holvorcem.  Measurer
    M. Schwartz.  0.81-m f/7 Ritchey-Chretien + CCD.
G96 Mt. Lemmon Survey.  Observer D. C. Fuls.  Measurers E. J. Christensen,
    D. C. Fuls, A. R. Gibbs, A. D. Grauer, J. A. Johnson, R. A. Kowalski,
    S. M. Larson, G. J. Leonard, R. G. Matheny, R. L. Seaman, F. C. Shelly.
    1.5-m reflector + 10K CCD.
H21 Astronomical Research Observatory, Westfield.  Observer R. Holmes.
    Measurers S. Foglia, L. Buzzi, T. Linder, R. Holmes.  1.3-m f/4.0
    astrograph + CCD.
 
Orbital elements:
2016 UE101                                               Earth MOID = 0.1469 AU
Epoch 2016 July 31.0 TT = JDT 2457600.5                 MPC
M 277.95413              (2000.0)            P               Q
n   0.45495068     Peri.   43.47132     -0.59019952     -0.78292471
a   1.6742739      Node    83.66586     +0.67586936     -0.61249321
e   0.3492333      Incl.   11.41504     +0.44143531     -0.10899986
P   2.17           H   20.7           G   0.15           U   8
Residuals in seconds of arc
161029 G96  0.1-  0.0     161029 G96  0.2-  0.2+    161031 705  0.1+  0.2-
161029 G96  0.5-  0.1+    161030 G96  0.2+  0.3-    161031 705  0.2-  0.2-
161029 G96  0.2+  0.1-    161030 G96  0.2-  0.6+    161031 705  0.2-  0.1-
161029 G96  0.5+  0.4-    161030 G96  0.0   0.0     161102 926  0.3+  0.1+
161029 G96  0.1+  0.3+    161031 H21  0.1+  0.0     161102 926  0.0   0.2+
161029 G96  0.0   0.3-    161031 H21  0.3+  0.2+    161102 926  0.4-  0.2-

Ephemeris:
2016 UE101               a,e,i = 1.67, 0.35, 11                  q = 1.0896
Date    TT    R. A. (2000) Decl.     Delta      r     Elong.  Phase     V
2016 10 03    04 50 40.9 +04 57 04   0.7463  1.4932   116.7    36.8    22.4
...
2016 10 18    05 15 23.8 +05 02 49   0.5933  1.4189   124.5    35.4    21.8
...
2016 10 26    05 27 42.0 +05 18 01   0.5186  1.3797   128.8    34.1    21.4
...
2016 11 01    05 36 26.1 +05 40 49   0.4659  1.3507   132.3    32.9    21.1
2016 11 02    05 37 50.9 +05 45 55   0.4574  1.3460   132.9    32.7    21.0
2016 11 03    05 39 14.9 +05 51 28   0.4490  1.3412   133.5    32.5    21.0
...
2016 11 09    05 47 24.4 +06 35 32   0.4005  1.3129   137.2    30.8    20.6
...
2016 11 17    05 57 41.6 +08 12 17   0.3409  1.2764   142.6    28.1    20.1
...
2016 12 02    06 15 39.4 +14 26 42   0.2463  1.2131   154.6    20.4    19.1

A. U. Tomatic                (C) Copyright 2016 MPC           M.P.E.C. 2016-V11




More information about the Iaude mailing list